Regional Weather Roundup
Issued by NWS

Home | Current Version | Previous Version | Text Only | Print | Product List | Glossary Off
Versions: 1 2 3 4 5 6 7 8 9 10 11 12 13 14 15 16 17 18 19 20 21 22 23 24 25 26 27 28 29 30 31 32 33 34 35 36 37 38 39 40 41 42 43 44 45 46 47 48 49 50

000
ASUS43 KTOP 271008
RWRKS

WEATHER ROUNDUP FOR KANSAS
NATIONAL WEATHER SERVICE GOODLAND KS
500 AM CDT TUE JUN 27 2017

NOTE:  "FAIR" INDICATES FEW OR NO CLOUDS BELOW 12,000 FEET WITH NO
SIGNIFICANT WEATHER AND/OR OBSTRUCTIONS TO VISIBILITY.

KSZ001>006-013>018-027>032-041>047-271100-
NORTHWEST KANSAS

CITY           SKY/WX    TMP DP  RH WIND       PRES   REMARKS
GOODLAND       CLEAR     58  58 100 SE9       30.03F
HAYS           CLOUDY    61  60  97 E13       30.05F
HILL CITY      CLOUDY    60  60 100 E8        30.06F FOG
RUSSELL        CLOUDY    63  60  90 E13       30.04F
$$

KSZ061>065-074>080-084>089-271100-
SOUTHWEST KANSAS

CITY           SKY/WX    TMP DP  RH WIND       PRES   REMARKS
DODGE CITY     PTCLDY    64  61  90 SE9       30.02F
ELKHART          N/A     67  44  43 SW9         N/A
GARDEN CITY    PTCLDY    64  61  90 SE8       30.01F
LIBERAL        PTCLDY    66  61  84 S10       30.02F
PRATT          PTCLDY    63  58  86 SE7       30.04F
$$

KSZ066>073-081>083-090>101-271100-
SOUTHEAST KANSAS

CITY           SKY/WX    TMP DP  RH WIND       PRES   REMARKS
CHANUTE        MOCLDY    63  61  93 E5        30.10R
COFFEYVILLE    CLOUDY    64  63  96 E3        30.08F
HUTCHINSON     MOCLDY    64  62  93 E9        30.06S
MEDICINE LODGE   N/A     66  62  87 CALM      30.01F
NEWTON         CLOUDY    63  61  93 E7        30.07F
PARSONS        MOCLDY    64  62  93 CALM      30.09S
WICHITA INTL   TSTM      65  64  97 SE10      30.05S
WICHITA JABRA  CLOUDY    63  62  97 E7        30.06F
WICHITA MCCONL CLOUDY    65  61  89 SE13      30.05F
WINFIELD       CLOUDY    65  64  97 E13       30.06F
$$

KSZ007>012-019>026-033>040-048>060-102>105-271100-
NORTHEAST KANSAS

CITY           SKY/WX    TMP DP  RH WIND       PRES   REMARKS
CONCORDIA      FOG       58  58 100 E8        30.08F VSB 3/4
EMPORIA        CLOUDY    61  60  97 E9        30.09S
LAWRENCE       CLEAR     54  54 100 CALM      30.12S FOG
MANHATTAN      MOCLDY    60  59  96 E7        30.09F
MARYSVILLE     CLEAR     54  54 100 SE6       30.11F FOG
OLATHE IND     CLEAR     58  55  90 SE3       30.12F
OLATHE EXE     CLEAR     57  56  96 E5        30.12F
SALINA         PTCLDY    65  60  84 E8        30.07F
TOPEKA BILLARD CLEAR     58  58 100 E5        30.11F
TOPEKA FORBES  CLEAR     59  57  93 E5        30.11F
$$



USA.gov is the U.S. government's official web portal to all federal, state and local government web resources and services.